Miscellaneous Local Product
Issued by NWS North Platte, NE

Home | Current Version | Previous Version | Graphics & Text | Print | Product List | Glossary On
Versions: 1 2 3 4 5 6 7 8 9 10 11 12 13 14 15 16 17 18 19 20 21 22 23 24 25 26 27 28 29 30 31 32 33 34 35 36 37 38 39 40 41 42 43 44 45 46 47 48 49 50
000
AXUS43 KLBF 030410
MISLBF


WESTERN AND NORTH CENTRAL NEBRASKA HOURLY WEATHER ROUNDUP
NATIONAL WEATHER SERVICE NORTH PLATTE NE
1100 PM CDT THU JUL 02 2015

***STATIONS NOT REPORTING VARIABLES SUCH AS SKY/WEATHER OR
PRESSURE ARE PROVIDED BY THE NEBRASKA DEPARTMENT OF
ROADS...RAWS...AND APRS NETWORKS...AND ARE NOT UNDER
NATIONAL WEATHER SERVICE QUALITY CONTROL***

...OBSERVATIONS IN AND NEAR THE EASTERN PANHANDLE OF NEBRASKA...

CITY           SKY/WX    TMP DP  RH WIND       PRES   REMARKS
PINE RIDGE     CLEAR     65  58  78 CALM      30.09R
CHADRON        PTCLDY    66  61  84 CALM      30.10R
ALLIANCE       CLEAR     63  60  90 CALM      30.12R
SIDNEY         MOCLDY    67  60  78 E3        30.15R
WHITECLAY        N/A     62  59  88 E3          N/A
CRESCENT LAKE    N/A     67  58  72 NE7         N/A
BIG SPRINGS      N/A     68  63  83 CALM        N/A
$$

...OBSERVATIONS IN NORTH CENTRAL NEBRASKA...

CITY           SKY/WX    TMP DP  RH WIND       PRES   REMARKS
VALENTINE      CLEAR     66  60  81 CALM      30.04R
THEDFORD       CLEAR     68  61  77 CALM      30.07R
AINSWORTH      CLEAR     65  63  93 CALM      30.04R
O`NEILL        MOCLDY    65  64  95 CALM      30.02R
ORD            MOCLDY    64  62  93 E5        30.00S
BROKEN BOW     CLEAR     66  62  87 CALM      30.03R
VALENTINE NWR    N/A     68  60  76 NE3         N/A
SPRINGVIEW       N/A     63  60  88 CALM        N/A
BREWSTER         N/A     69  64  85 CALM        N/A
ROSE             N/A     76  76  99 E5          N/A
NEWPORT          N/A     65  65  99 CALM        N/A
SARGENT          N/A     66  63  89 CALM        N/A
CHAMBERS         N/A     63  61  93 CALM        N/A
EWING            N/A     65  63  94 CALM        N/A
$$

...OBSERVATIONS IN SOUTHWEST NEBRASKA AND FAR NORTHEAST COLORADO...

CITY           SKY/WX    TMP DP  RH WIND       PRES   REMARKS
WRAY           FAIR      72  58  60 E6        30.11R
HOLYOKE        FAIR      70  61  73 E3        30.11R
IMPERIAL       CLEAR     66  59  78 NE7       30.08R
OGALLALA       CLEAR     66  61  84 CALM      30.09R
NORTH PLATTE   CLEAR     66  58  75 N3        30.05R
MCCOOK         CLEAR     71  61  70 N6        30.03R
LEXINGTON      CLEAR     67  63  85 NE5       30.03R
PAXTON           N/A     69  61  75 CALM        N/A
GOTHENBURG       N/A     69  56  62 N5          N/A
CALLAWAY         N/A     67  60  79 N3          N/A
$$

...NORTH PLATTE AREA...

CITY           SKY/WX    TMP DP  RH WIND       PRES   REMARKS
AIRPORT        CLEAR     66  58  75 N3        30.05R
DOWNTOWN         N/A     70  60  70 CALM        N/A
HILLCREST        N/A     68  59  73 NE8         N/A
$$

...SOME WEATHER OBSERVATIONS FROM AROUND THE REGION...

CITY           SKY/WX    TMP DP  RH WIND       PRES   REMARKS
DENVER         CLOUDY    61  55  81 S8        30.22R
LARAMIE        CLOUDY    60  52  74 SE7       30.32R
CHEYENNE       PTCLDY    67  53  61 CALM      30.26R
SCOTTSBLUFF    CLOUDY    70  61  73 NE7       30.13R
RAPID CITY     CLEAR     63  58  83 N8        30.10R
PIERRE         CLEAR     66  64  93 S5        29.98R
WINNER         FAIR      66  60  81 SE6       30.01R
SIOUX FALLS    CLEAR     60  57  89 CALM      30.01R
OMAHA          MOCLDY    65  59  81 E5        29.97R
GRAND ISLAND   CLOUDY    66  63  90 N10       30.00R
KANSAS CITY    PTCLDY    68  66  93 NE6       29.96R FOG
WICHITA        PTCLDY    71  67  87 SE3       29.95R
HAYS           MOCLDY    75  61  60 CALM      29.99R
LIBERAL        PTCLDY    70  63  78 CALM      30.05R
GOODLAND       CLEAR     66  54  65 N7        30.10R
$$



USA.gov is the U.S. government's official web portal to all federal, state and local government web resources and services.